1998-067PS

Last updated on Mon Dec 17 2018 00:02:09 GMT+0000 (Coordinated Universal Time)

1 43847U 98067PS 18349.74526235 .00484331 00000-0 60226-2 0 9996 2 43847 51.6404 193.8738 0004729 160.2343 199.6455 15.57763908 468

Satellite not in orbit